Regional Weather Roundup
Issued by NWS

Home | Current Version | Previous Version | Text Only | Print | Product List | Glossary On
Versions: 1 2 3 4 5 6 7 8 9 10 11 12 13 14 15 16 17 18 19 20 21 22 23 24 25 26 27
000
ASUS45 KBOI 290710
RWRID

IDAHO REGIONAL WEATHER ROUNDUP
NATIONAL WEATHER SERVICE BOISE ID
100 AM MDT FRI JUL 29 2016

NOTE: "FAIR" INDICATES FEW OR NO CLOUDS BELOW 12000 FEET
WITH NO SIGNIFICANT WEATHER AND/OR OBSTRUCTIONS TO VISIBILITY

IDZ012-014-290800-
SOUTHWEST IDAHO


CITY           SKY/WX    TMP DP  RH WIND       PRES   REMARKS
BOISE          CLEAR     76  40  27 CALM      29.96R
CALDWELL       CLEAR     72  58  61 W9        29.94R
MOUNTAIN HOME  CLEAR     74  37  26 NW9       29.95S
$$

IDZ016-017-290800-
SOUTHCENTRAL IDAHO


CITY           SKY/WX    TMP DP  RH WIND       PRES   REMARKS
BURLEY         CLEAR     68  44  42 S5        30.02S
JEROME         CLEAR     74  39  28 S5        30.03S
TWIN FALLS     CLEAR     73  35  25 S13       30.03S
$$

IDZ019>023-290800-
SOUTHEAST IDAHO


CITY           SKY/WX    TMP DP  RH WIND       PRES   REMARKS
IDAHO FALLS    CLEAR     59  46  62 N6        30.07R
POCATELLO      CLEAR     78  32  18 SW14      30.04F
REXBURG        CLEAR     62  47  57 NE6       30.09
$$

IDZ006-010-011-018-031-032-290800-
CENTRAL IDAHO MOUNTAINS


CITY           SKY/WX    TMP DP  RH WIND       PRES   REMARKS
MCCALL         CLEAR     69  41  36 N6        30.16S
HAILEY         CLEAR     63  39  42 NW13      30.14R
STANLEY          N/A     51  31  46 SE3       30.28R
SALMON         CLEAR     66  43  42 SE3       30.07S
CHALLIS        CLEAR     69  35  28 NW3       30.14R
$$

IDZ002-004-006-007-026-290800-
NORTHERN IDAHO


CITY           SKY/WX    TMP DP  RH WIND       PRES   REMARKS
LEWISTON       CLEAR     80  45  28 SW6       29.93S
LOWELL           N/A     67  58  72 CALM      30.00R
COEUR D`ALENE  CLEAR     68  54  60 NE5       29.98S
MULLAN PASS    CLEAR     66  38  35 N5        30.24F
$$




USA.gov is the U.S. government's official web portal to all federal, state and local government web resources and services.